sat.trackr.live / text

‹ back to catalog

STARLINK-6354

NORAD 56784 · 2023-078T

PAYLOAD ACTIVE UNKNOWN

§ Identity

Operator
Country
US
Launch date
2023-05-31
Launch site
AFWTR
Launch vehicle
Mass (kg)
RCS (m²)

Purposes: comms

External: N2YO · Heavens-Above · Gunter

§ Orbital elements

Epoch: 2026-09-20T22:00:03.000096Z

Period
95.46 min
Inclination
70.0010°
Eccentricity
0.0003675
Mean motion
15.08518649 rev/d
Perigee alt
538.2 km
Apogee alt
543.3 km
Semi-major
6,918.9 km
B*
-1.9089e-4
RAAN
192.1484°
Arg perigee
239.2634°
Mean anomaly
295.4187°
Rev number
567

§ Raw data

STARLINK-63541 56784U 23078T   26263.91670139 -.00003086  00000+0 -19089-3 0  99932 56784  70.0010 192.1484 0003675 239.2634 295.4187 15.08518649  5670

JSON: /api/v1/satellites/56784 · /tle

For live sub-satellite position, see the globe view (requires WebGL).

§ Visibility from observer

Set your observer location to see the next 7 days of passes ≥ 10°. The values pass through the URL so the page stays shareable.

No JS? Fill the form by hand. The geolocation button needs JavaScript.